Change the Weather History Date:

Wednesday, December 7, 2011

  Actual Average (KGRR) Record (KGRR)
Temperature  
Mean Temperature 31 °F 32 °F  
Max Temperature 37 °F 37 °F 62 °F (1946)
Min Temperature 25 °F 26 °F -4 °F (1972)
Degree Days  
Heating Degree Days 34 33  
Month to date heating degree days 225  
Since 1 July heating degree days 1563  
Cooling Degree Days 0 0  
Month to date cooling degree days 0  
Year to date cooling degree days 699  
Moisture  
Dew Point 22 °F    
Average Humidity 69    
Maximum Humidity 88    
Minimum Humidity 39    
Precipitation  
Precipitation 0.00 in 0.08 in 1.12 in (1927)
Month to date precipitation 0.63  
Year to date precipitation 36.40  
Snow  
Snow 0.00 in 0.60 in 5.60 in (1994)
Month to date snowfall 3.9  
Since 1 July snowfall 11.2  
Snow Depth -    
Sea Level Pressure  
Sea Level Pressure 29.96 in    
Wind  
Wind Speed 7 mph (WSW)    
Max Wind Speed 22 mph    
Max Gust Speed 28 mph    
Visibility 10 miles    
Events      
T = Trace of Precipitation, MM = Missing Value Source: NWS Daily Summary

Daily Weather History Graph

Daily Weather History Graph

Search for Another Location

Airport or City:

Trip Planner

Search our weather history database for the weather conditions in past years. The results will help you decide how hot, cold, wet, or windy it might be!

Date:

Astronomy

Dec. 07, 2011 Rise Set
Actual Time 7:57 AM EST 5:05 PM EST
Civil Twilight 7:25 AM EST 5:37 PM EST
Nautical Twilight 6:49 AM EST 6:13 PM EST
Astronomical Twilight 6:15 AM EST 6:47 PM EST
Moon 3:07 PM EST (12/7) 5:10 AM EST (12/7)
Length of Visible Light 10h 12m
Length of Day
9h 08m
Waxing Gibbous, 92% of the Moon is Illuminated
Dec 7
Waxing Gibbous
Dec 10
Full
Dec 17
Last Quarter
Dec 24
New
Jan 1
First Quarter

Hourly Weather History & Observations

Time (EST) Temp. Windchill Dew Point Humidity Pressure Visibility Wind Dir Wind Speed Gust Speed Precip Events Conditions
12:13 AM 29.1 °F - 22.8 °F 77% 30.09 in 10.0 mi Calm Calm - N/A   Mostly Cloudy
12:33 AM 28.8 °F - 22.6 °F 78% 30.09 in 10.0 mi Calm Calm - N/A   Clear
12:53 AM 27.9 °F - 23.5 °F 84% 30.08 in 10.0 mi Calm Calm - N/A   Clear
1:13 AM 26.8 °F 22.8 °F 23.0 °F 86% 30.08 in 10.0 mi SW 3.5 mph - N/A   Clear
1:33 AM 26.4 °F 22.4 °F 23.4 °F 88% 30.07 in 10.0 mi WSW 3.5 mph - N/A   Clear
1:53 AM 25.7 °F 20.1 °F 22.6 °F 88% 30.07 in 10.0 mi WSW 4.6 mph - N/A   Scattered Clouds
2:13 AM 26.6 °F 21.2 °F 23.0 °F 86% 30.06 in 10.0 mi West 4.6 mph - N/A   Overcast
2:33 AM 26.4 °F 20.9 °F 22.8 °F 86% 30.06 in 10.0 mi WSW 4.6 mph - N/A   Overcast
3:14 AM 26.1 °F - 22.5 °F 86% 30.06 in 10.0 mi Calm Calm - N/A   Overcast
3:33 AM 25.5 °F 21.3 °F 22.1 °F 87% 30.05 in 10.0 mi WSW 3.5 mph - N/A   Mostly Cloudy
4:13 AM 27.1 °F 23.2 °F 24.1 °F 88% 30.04 in 10.0 mi WSW 3.5 mph - N/A   Overcast
4:33 AM 27.5 °F 23.6 °F 23.9 °F 86% 30.03 in 10.0 mi WSW 3.5 mph - N/A   Overcast
4:53 AM 27.9 °F 24.0 °F 23.7 °F 84% 30.03 in 10.0 mi West 3.5 mph - N/A   Overcast
5:13 AM 27.9 °F - 23.9 °F 85% 30.02 in 10.0 mi Calm Calm - N/A   Overcast
5:33 AM 28.2 °F 24.4 °F 23.9 °F 84% 30.02 in 10.0 mi SW 3.5 mph - N/A   Overcast
5:53 AM 28.4 °F 24.6 °F 24.3 °F 84% 30.01 in 10.0 mi SW 3.5 mph - N/A   Overcast
6:13 AM 28.6 °F - 23.9 °F 83% 30.00 in 10.0 mi Calm Calm - N/A   Overcast
6:33 AM 28.9 °F 25.2 °F 24.4 °F 83% 30.00 in 10.0 mi SSW 3.5 mph - N/A   Overcast
6:54 AM 29.1 °F 24.1 °F 24.1 °F 81% 30.00 in 10.0 mi South 4.6 mph - N/A   Overcast
7:13 AM 29.1 °F 22.1 °F 24.3 °F 82% 30.00 in 10.0 mi South 6.9 mph - N/A   Overcast
7:33 AM 29.3 °F 22.3 °F 24.8 °F 83% 29.99 in 10.0 mi South 6.9 mph - N/A   Overcast
7:53 AM 29.3 °F 23.2 °F 24.8 °F 83% 29.99 in 10.0 mi SSW 5.8 mph - N/A   Overcast
8:13 AM 29.3 °F 24.3 °F 25.2 °F 85% 29.98 in 10.0 mi South 4.6 mph - N/A   Overcast
8:53 AM 29.8 °F 23.0 °F 25.2 °F 83% 29.97 in 10.0 mi SSW 6.9 mph - N/A   Overcast
9:13 AM 30.6 °F 23.8 °F 25.3 °F 81% 29.97 in 10.0 mi SW 6.9 mph - N/A   Overcast
9:33 AM 31.1 °F 24.5 °F 25.7 °F 80% 29.97 in 10.0 mi WSW 6.9 mph - N/A   Overcast
9:53 AM 32.0 °F 24.8 °F 25.3 °F 76% 29.97 in 10.0 mi West 8.1 mph - N/A   Overcast
10:13 AM 32.0 °F 24.2 °F 25.0 °F 75% 29.97 in 10.0 mi West 9.2 mph - N/A   Overcast
10:33 AM 32.4 °F 23.5 °F 23.5 °F 70% 29.97 in 10.0 mi West 11.5 mph - N/A   Mostly Cloudy
10:53 AM 34.3 °F 26.5 °F 22.8 °F 63% 29.96 in 10.0 mi West 10.4 mph - N/A   Mostly Cloudy
11:34 AM 35.6 °F 28.0 °F 20.5 °F 54% 29.94 in 10.0 mi West 10.4 mph - N/A   Scattered Clouds
11:53 AM 36.0 °F 27.5 °F 20.3 °F 53% 29.93 in 10.0 mi WSW 12.7 mph 16.1 mph N/A   Clear
12:13 PM 36.3 °F 28.0 °F 20.1 °F 52% 29.92 in 10.0 mi West 12.7 mph - N/A   Clear
12:33 PM 36.7 °F 27.2 °F 20.1 °F 51% 29.91 in 10.0 mi WSW 16.1 mph 20.7 mph N/A   Clear
12:53 PM 37.2 °F 28.3 °F 19.0 °F 48% 29.90 in 10.0 mi WSW 15.0 mph 19.6 mph N/A   Clear
1:13 PM 37.4 °F 28.9 °F 19.8 °F 49% 29.89 in 10.0 mi WSW 13.8 mph 18.4 mph N/A   Clear
1:34 PM 37.4 °F 28.5 °F 20.1 °F 50% 29.88 in 10.0 mi WSW 15.0 mph 20.7 mph N/A   Clear
1:53 PM 37.8 °F 28.0 °F 17.8 °F 44% 29.88 in 10.0 mi WSW 18.4 mph 23.0 mph N/A   Clear
2:13 PM 37.8 °F 29.4 °F 14.5 °F 39% 29.88 in 10.0 mi WSW 13.8 mph 25.3 mph N/A   Scattered Clouds
2:33 PM 37.6 °F 27.7 °F 16.9 °F 43% 29.87 in 10.0 mi WSW 18.4 mph 21.9 mph N/A   Scattered Clouds
2:53 PM 36.3 °F 26.4 °F 13.6 °F 39% 29.87 in 10.0 mi WSW 17.3 mph 23.0 mph N/A   Scattered Clouds
3:13 PM 36.0 °F 26.0 °F 14.5 °F 42% 29.87 in 10.0 mi WSW 17.3 mph 27.6 mph N/A   Mostly Cloudy
3:33 PM 36.5 °F 26.0 °F 13.8 °F 39% 29.86 in 10.0 mi WSW 19.6 mph - N/A   Mostly Cloudy
3:53 PM 36.1 °F 25.0 °F 15.1 °F 42% 29.87 in 10.0 mi WSW 21.9 mph 26.5 mph N/A   Scattered Clouds
4:13 PM 35.6 °F 25.5 °F 16.5 °F 46% 29.87 in 10.0 mi WSW 17.3 mph 20.7 mph N/A   Clear
4:53 PM 33.8 °F 23.2 °F 18.3 °F 53% 29.89 in 10.0 mi WSW 17.3 mph - N/A   Mostly Cloudy
5:13 PM 33.8 °F 24.3 °F 19.2 °F 55% 29.89 in 10.0 mi WSW 13.8 mph 21.9 mph N/A   Overcast
5:33 PM 34.0 °F 22.7 °F 18.5 °F 53% 29.90 in 10.0 mi WSW 19.6 mph 25.3 mph N/A   Overcast
5:53 PM 33.8 °F 24.8 °F 19.0 °F 55% 29.90 in 10.0 mi West 12.7 mph 20.7 mph N/A   Overcast
6:13 PM 33.8 °F 23.5 °F 19.4 °F 56% 29.91 in 10.0 mi West 16.1 mph 23.0 mph N/A   Overcast
6:33 PM 33.8 °F 23.9 °F 20.3 °F 58% 29.91 in 10.0 mi West 15.0 mph 19.6 mph N/A   Overcast
6:53 PM 33.8 °F 25.8 °F 20.8 °F 59% 29.91 in 10.0 mi West 10.4 mph 18.4 mph N/A   Overcast
7:14 PM 33.1 °F 23.4 °F 22.3 °F 65% 29.92 in 10.0 mi West 13.8 mph - N/A   Overcast
7:33 PM 32.4 °F 22.5 °F 22.6 °F 67% 29.93 in 10.0 mi WNW 13.8 mph 20.7 mph N/A   Overcast
7:53 PM 32.0 °F 23.0 °F 23.0 °F 69% 29.94 in 10.0 mi WNW 11.5 mph 17.3 mph N/A   Overcast
8:13 PM 31.5 °F 21.8 °F 23.2 °F 71% 29.94 in 10.0 mi West 12.7 mph 20.7 mph N/A   Overcast
8:33 PM 31.1 °F 20.9 °F 24.1 °F 75% 29.95 in 10.0 mi WNW 13.8 mph 19.6 mph N/A   Overcast
8:53 PM 30.9 °F 20.7 °F 24.3 °F 76% 29.95 in 10.0 mi West 13.8 mph 19.6 mph N/A   Overcast
9:13 PM 30.9 °F 19.4 °F 23.9 °F 75% 29.96 in 10.0 mi WNW 17.3 mph 23.0 mph N/A   Overcast
9:33 PM 30.7 °F 20.4 °F 23.7 °F 75% 29.96 in 10.0 mi WNW 13.8 mph 21.9 mph N/A   Overcast
9:53 PM 30.7 °F 20.4 °F 23.4 °F 74% 29.96 in 10.0 mi WNW 13.8 mph 21.9 mph N/A   Overcast
10:13 PM 30.6 °F 21.8 °F 23.5 °F 75% 29.97 in 10.0 mi WNW 10.4 mph 16.1 mph N/A   Overcast
10:33 PM 30.6 °F 23.1 °F 23.2 °F 74% 29.97 in 10.0 mi WNW 8.1 mph 17.3 mph N/A   Overcast
10:53 PM 30.6 °F 21.2 °F 23.0 °F 74% 29.98 in 10.0 mi WNW 11.5 mph - N/A   Overcast
11:13 PM 30.6 °F 21.8 °F 23.0 °F 74% 29.99 in 10.0 mi WNW 10.4 mph - N/A   Overcast
11:33 PM 30.6 °F 21.8 °F 23.0 °F 74% 30.00 in 10.0 mi West 10.4 mph - N/A   Overcast
11:53 PM 30.0 °F 21.7 °F 22.8 °F 75% 30.00 in 10.0 mi West 9.2 mph - N/A   Overcast